This is the latest recevied weather packets stored in our database for station/object N0NPO. If no packets are shown the sender has not sent any weather packets the latest 10 day(s).
| Time | Temp. | Humidity | Pressure | Rain* | Wind** | Luminosity | Snow |
|---|---|---|---|---|---|---|---|
| 1778128028 | 6.67° C | 1% | 1015.5 hPa | 0 mm | - | 0 W/m² | - |
| 1778127723 | 7.22° C | 1% | 1015.4 hPa | 0 mm | - | 0 W/m² | - |
| 1778127420 | 7.22° C | 1% | 1015.4 hPa | 0 mm | - | 0 W/m² | - |
| 1778127116 | 7.22° C | 1% | 1015.6 hPa | 0 mm | - | 0 W/m² | - |
| 1778126814 | 7.22° C | 1% | 1015.7 hPa | 0 mm | - | 0 W/m² | - |
| 1778126510 | 7.22° C | 1% | 1015.7 hPa | 0 mm | - | 0 W/m² | - |
| 1778126206 | 7.22° C | 1% | 1015.8 hPa | 0 mm | - | 0 W/m² | - |
| 1778125902 | 7.22° C | 1% | 1015.6 hPa | 0 mm | - | 0 W/m² | - |
| 1778125599 | 7.78° C | 1% | 1016 hPa | 0 mm | - | 0 W/m² | - |
| 1778125297 | 7.22° C | 1% | 1015.8 hPa | 0 mm | - | 0 W/m² | - |
| 1778124995 | 7.22° C | 1% | 1015.9 hPa | 0 mm | - | 0 W/m² | - |
| 1778124692 | 7.78° C | 1% | 1015.9 hPa | 0 mm | - | 0 W/m² | - |
| 1778124389 | 8.89° C | 1% | 1016 hPa | 0 mm | - | 0 W/m² | - |
| 1778124085 | 9.44° C | 1% | 1016.1 hPa | 0 mm | - | 0 W/m² | - |
| 1778123782 | 9.44° C | 1% | 1016.2 hPa | 0 mm | - | 0 W/m² | - |
| 1778123479 | 10° C | 1% | 1016.1 hPa | 0 mm | - | 0 W/m² | - |
| 1778123175 | 9.44° C | 1% | 1016.2 hPa | 0 mm | - | 0 W/m² | - |
| 1778122873 | 9.44° C | 1% | 1016.3 hPa | 0 mm | - | 0 W/m² | - |
| 1778122570 | 9.44° C | 1% | 1016.1 hPa | 0 mm | - | 0 W/m² | - |
| 1778122267 | 10° C | 1% | 1016.4 hPa | 0 mm | - | 0 W/m² | - |
| 1778121965 | 10° C | 1% | 1016.2 hPa | 0 mm | - | 0 W/m² | - |
| 1778121662 | 10° C | 1% | 1016.3 hPa | 0 mm | - | 0 W/m² | - |
| 1778121357 | 10° C | 1% | 1016.3 hPa | 0 mm | - | 0 W/m² | - |
| 1778121055 | 10.56° C | 1% | 1016.5 hPa | 0 mm | - | 0 W/m² | - |
| 1778120752 | 10.56° C | 1% | 1016.2 hPa | 0 mm | - | 0 W/m² | - |
* Rain latest hour (hover to see other rain measurements)
** Current wind speed in m/s (hover to see current wind gust speed)